Regional Weather Roundup
Issued by NWS

Home | Current Version | Previous Version | Text Only | Print | Product List | Glossary Off
Versions: 1 2 3 4 5 6 7 8 9 10 11 12 13 14 15 16 17 18 19 20 21 22 23 24 25 26 27 28 29 30 31 32 33 34 35 36 37 38 39 40 41 42 43 44 45 46 47 48 49 50

157
ASUS43 KFSD 221702
RWRSD

WEATHER ROUNDUP FOR SOUTH DAKOTA
NATIONAL WEATHER SERVICE SIOUX FALLS SD
1100 AM CST THU FEB 22 2018

NOTE: "FAIR" INDICATES FEW OR NO CLOUDS BELOW 12,000 FEET WITH NO
SIGNIFICANT WEATHER AND/OR OBSTRUCTIONS TO VISIBILITY.


SDZ001>005-009-010-012>017-221800-
NORTHWEST AND NORTH CENTRAL SOUTH DAKOTA

CITY           SKY/WX    TMP DP  RH WIND       PRES   REMARKS
BUFFALO          N/A      4  -5  66 NW5       30.06S WCI  -5
FAITH            N/A      2  -8  63 N3        30.19S
MOBRIDGE       SUNNY      6  -1  73 CALM      30.27F
$$

SDZ012>016-024>037-041>051-057-063-072>074-221800-
SOUTHWEST AND SOUTH CENTRAL SOUTH DAKOTA

CITY           SKY/WX    TMP DP  RH WIND       PRES   REMARKS
RAPID CTY ARPT SUNNY      7   1  76 CALM      30.13S
PIERRE         PTSUNNY   14  11  87 SE12      30.28F WCI   0
CUSTER         CLOUDY    25   4  40 E5        29.98S WCI  19
ELLSWORTH AFB  SUNNY      5  -1  76 W6        30.11S WCI  -6
PHILIP         PTSUNNY    5   0  79 W3        30.22F
PINE RIDGE     CLOUDY    20  14  77 S16       30.13R WCI   6
SPEARFISH        N/A     19   7  58 W6        30.06F WCI  11
WINNER         LGT SNOW  23  17  78 S15       30.29S WCI  10
$$

SDZ004>011-016>023-039-040-221800-
NORTHEAST SOUTH DAKOTA

CITY           SKY/WX    TMP DP  RH WIND       PRES   REMARKS
ABERDEEN       CLOUDY    18  10  71 S6        30.39F WCI  10
WATERTOWN      CLOUDY    19  14  81 SE13      30.37F WCI   6
BROOKINGS      CLOUDY    20  16  84 E9        30.39F WCI   9
SISSETON         N/A     17  11  77 SE14      30.43F WCI   3
$$

SDZ017-020-022-023-036>040-048>070-221800-
SOUTHEAST SOUTH DAKOTA

CITY           SKY/WX    TMP DP  RH WIND       PRES   REMARKS
SIOUX FALLS    CLOUDY    22  17  81 E10       30.40F WCI  11
HURON          CLOUDY    21  16  81 SE10      30.38F WCI  10
CHAMBERLAIN    CLOUDY    23  20  87 E13       30.33S WCI  12
MITCHELL       PTSUNNY   23  17  78 SE12      30.40S WCI  12
YANKTON        CLOUDY    21  17  84 E10       30.40R WCI  10
$$

ABBREVIATIONS USED IN REMARKS
   TC - TEMPERATURE IN CELSIUS
  WCI - WIND CHILL INDEX
   HX - HEAT INDEX
  VSB - VISIBILITY





USA.gov is the U.S. government's official web portal to all federal, state and local government web resources and services.